Time,TemperatureF,DewpointF,PressureIn,WindDirection,WindDirectionDegrees,WindSpeedMPH,WindSpeedGustMPH,Humidity,HourlyPrecipIn,Conditions,Clouds,dailyrainin,SoftwareType,DateUTC
2013-03-12 00:14:00,40.7,12.0,30.18,SSW,200,0.0,-999.0,31,-99.99,,,0.00,weatherlink.com 1.10,2013-03-12 04:14:00,
2013-03-12 00:29:00,40.6,12.0,30.17,SSW,200,0.0,-999.0,31,-99.99,,,0.00,weatherlink.com 1.10,2013-03-12 04:29:00,
2013-03-12 00:44:00,41.0,12.0,30.17,SSW,200,3.0,-999.0,30,-99.99,,,0.00,weatherlink.com 1.10,2013-03-12 04:44:00,
2013-03-12 00:59:00,41.7,12.0,30.18,SSW,200,2.0,-999.0,30,-99.99,,,0.00,weatherlink.com 1.10,2013-03-12 04:59:00,
2013-03-12 01:14:00,42.1,12.0,30.19,SSW,200,3.0,-999.0,29,-99.99,,,0.00,weatherlink.com 1.10,2013-03-12 05:14:00,
2013-03-12 01:29:00,42.7,12.0,30.18,SSW,200,4.0,-999.0,29,-99.99,,,0.00,weatherlink.com 1.10,2013-03-12 05:29:00,
2013-03-12 01:44:00,43.4,12.0,30.18,SSW,196,3.0,-999.0,28,-99.99,,,0.00,weatherlink.com 1.10,2013-03-12 05:44:00,
2013-03-12 01:59:00,43.3,12.0,30.17,SSW,205,0.0,-999.0,28,-99.99,,,0.00,weatherlink.com 1.10,2013-03-12 05:59:00,
2013-03-12 02:14:00,42.6,12.0,30.16,SSW,205,0.0,-999.0,29,-99.99,,,0.00,weatherlink.com 1.10,2013-03-12 06:14:00,
2013-03-12 02:29:00,43.0,12.0,30.16,SSW,200,2.0,-999.0,28,-99.99,,,0.00,weatherlink.com 1.10,2013-03-12 06:29:00,
2013-03-12 02:44:00,42.6,11.0,30.15,SSW,200,5.0,-999.0,28,-99.99,,,0.00,weatherlink.com 1.10,2013-03-12 06:44:00,
2013-03-12 02:59:00,42.4,11.0,30.14,SSW,200,4.0,-999.0,28,-99.99,,,0.00,weatherlink.com 1.10,2013-03-12 06:59:00,
2013-03-12 03:14:00,42.3,11.0,30.14,SSW,200,3.0,-999.0,28,-99.99,,,0.00,weatherlink.com 1.10,2013-03-12 07:14:00,
2013-03-12 03:29:00,42.3,11.0,30.14,SSW,200,4.0,-999.0,28,-99.99,,,0.00,weatherlink.com 1.10,2013-03-12 07:29:00,
2013-03-12 03:44:00,42.4,11.0,30.12,SSW,200,4.0,-999.0,28,-99.99,,,0.00,weatherlink.com 1.10,2013-03-12 07:44:00,
2013-03-12 03:59:00,42.1,11.0,30.11,SSW,200,4.0,-999.0,28,-99.99,,,0.00,weatherlink.com 1.10,2013-03-12 07:59:00,
2013-03-12 04:14:00,42.6,11.0,30.11,SSW,200,3.0,-999.0,27,-99.99,,,0.00,weatherlink.com 1.10,2013-03-12 08:14:00,
2013-03-12 04:29:00,43.5,11.0,30.10,SSW,205,3.0,-999.0,27,-99.99,,,0.00,weatherlink.com 1.10,2013-03-12 08:29:00,
2013-03-12 04:44:00,43.6,11.0,30.10,SSW,200,4.0,-999.0,27,-99.99,,,0.00,weatherlink.com 1.10,2013-03-12 08:44:00,
2013-03-12 04:59:00,44.1,12.0,30.09,SSW,205,6.0,-999.0,27,-99.99,,,0.00,weatherlink.com 1.10,2013-03-12 08:59:00,
2013-03-12 05:14:00,-999.0,-99.9,30.10,SSW,200,5.0,-999.0,27,-99.99,,,0.00,weatherlink.com 1.10,2013-03-12 09:14:00,
2013-03-12 05:29:00,-999.0,-99.9,30.10,SSW,200,6.0,-999.0,26,-99.99,,,0.00,weatherlink.com 1.10,2013-03-12 09:29:00,
2013-03-12 05:44:00,-999.0,-99.9,30.09,SSW,200,6.0,-999.0,26,-99.99,,,0.00,weatherlink.com 1.10,2013-03-12 09:44:00,
2013-03-12 05:59:00,-999.0,-99.9,30.09,SSW,196,3.0,-999.0,26,-99.99,,,0.00,weatherlink.com 1.10,2013-03-12 09:59:00,
2013-03-12 06:14:00,-999.0,-99.9,30.09,SSW,205,2.0,-999.0,-999,-99.99,,,0.00,weatherlink.com 1.10,2013-03-12 10:14:00,
2013-03-12 06:29:00,-999.0,-99.9,30.09,SSW,194,1.0,-999.0,-999,-99.99,,,0.00,weatherlink.com 1.10,2013-03-12 10:29:00,
2013-03-12 06:44:00,-999.0,-99.9,30.09,SSW,194,4.0,-999.0,-999,-99.99,,,0.00,weatherlink.com 1.10,2013-03-12 10:44:00,
2013-03-12 06:59:00,-999.0,-99.9,30.08,SSW,194,3.0,-999.0,-999,-99.99,,,0.00,weatherlink.com 1.10,2013-03-12 10:59:00,
2013-03-12 07:14:00,-999.0,-99.9,30.08,SSW,194,2.0,-999.0,-999,-99.99,,,0.00,weatherlink.com 1.10,2013-03-12 11:14:00,
2013-03-12 07:29:00,-999.0,-99.9,30.08,SSW,194,4.0,-999.0,-999,-99.99,,,0.00,weatherlink.com 1.10,2013-03-12 11:29:00,
2013-03-12 07:44:00,-999.0,-99.9,30.08,SSW,194,3.0,-999.0,-999,-99.99,,,0.00,weatherlink.com 1.10,2013-03-12 11:44:00,
2013-03-12 07:59:00,-999.0,-99.9,30.08,SSW,194,0.0,-999.0,-999,-99.99,,,0.00,weatherlink.com 1.10,2013-03-12 11:59:00,
2013-03-12 08:14:00,-999.0,-99.9,30.08,SSW,194,0.0,-999.0,-999,-99.99,,,0.00,weatherlink.com 1.10,2013-03-12 12:14:00,
2013-03-12 08:29:00,-999.0,-99.9,30.08,SSW,194,2.0,-999.0,-999,-99.99,,,0.00,weatherlink.com 1.10,2013-03-12 12:29:00,
2013-03-12 08:44:00,-999.0,-99.9,30.08,SSW,194,1.0,-999.0,-999,-99.99,,,0.00,weatherlink.com 1.10,2013-03-12 12:44:00,
2013-03-12 08:59:00,-999.0,-99.9,30.07,SSW,194,1.0,-999.0,-999,-99.99,,,0.00,weatherlink.com 1.10,2013-03-12 12:59:00,
2013-03-12 09:14:00,-999.0,-99.9,30.07,SSW,192,3.0,-999.0,-999,-99.99,,,0.00,weatherlink.com 1.10,2013-03-12 13:14:00,
2013-03-12 09:29:00,-999.0,-99.9,30.09,SSW,194,4.0,-999.0,-999,-99.99,,,0.00,weatherlink.com 1.10,2013-03-12 13:29:00,
2013-03-12 09:44:00,-999.0,-99.9,30.08,SSW,195,1.0,-999.0,-999,-99.99,,,0.00,weatherlink.com 1.10,2013-03-12 13:44:00,
2013-03-12 09:59:00,-999.0,-99.9,30.07,South,189,0.0,-999.0,-999,-99.99,,,0.00,weatherlink.com 1.10,2013-03-12 13:59:00,
2013-03-12 10:14:00,-999.0,-99.9,30.06,South,180,1.0,-999.0,-999,-99.99,,,0.00,weatherlink.com 1.10,2013-03-12 14:14:00,
2013-03-12 10:29:00,-999.0,-99.9,30.06,South,181,3.0,-999.0,-999,-99.99,,,0.00,weatherlink.com 1.10,2013-03-12 14:29:00,
2013-03-12 10:44:00,-999.0,-99.9,30.05,South,182,3.0,-999.0,-999,-99.99,,,0.00,weatherlink.com 1.10,2013-03-12 14:44:00,
2013-03-12 10:59:00,-999.0,-99.9,30.05,South,172,2.0,-999.0,-999,-99.99,,,0.00,weatherlink.com 1.10,2013-03-12 14:59:00,
2013-03-12 11:14:00,-999.0,-99.9,30.04,South,173,1.0,-999.0,-999,-99.99,,,0.00,weatherlink.com 1.10,2013-03-12 15:14:00,
2013-03-12 11:29:00,-999.0,-99.9,30.03,SSW,205,2.0,-999.0,-999,-99.99,,,0.00,weatherlink.com 1.10,2013-03-12 15:29:00,
2013-03-12 11:44:00,-999.0,-99.9,30.03,SSW,200,5.0,-999.0,-999,-99.99,,,0.00,weatherlink.com 1.10,2013-03-12 15:44:00,
2013-03-12 11:59:00,-999.0,-99.9,30.02,SSW,205,2.0,-999.0,-999,-99.99,,,0.00,weatherlink.com 1.10,2013-03-12 15:59:00,
2013-03-12 12:14:00,-999.0,-99.9,30.02,SSW,200,2.0,-999.0,-999,-99.99,,,0.00,weatherlink.com 1.10,2013-03-12 16:14:00,
2013-03-12 12:29:00,-999.0,-99.9,30.02,SSW,196,4.0,-999.0,-999,-99.99,,,0.00,weatherlink.com 1.10,2013-03-12 16:29:00,
2013-03-12 12:44:00,-999.0,-99.9,30.00,SSW,210,5.0,-999.0,-999,-99.99,,,0.00,weatherlink.com 1.10,2013-03-12 16:44:00,
2013-03-12 12:59:00,-999.0,-99.9,29.99,SSW,205,4.0,-999.0,-999,-99.99,,,0.00,weatherlink.com 1.10,2013-03-12 16:59:00,
2013-03-12 13:14:00,-999.0,-99.9,29.99,SSW,200,5.0,-999.0,-999,-99.99,,,0.00,weatherlink.com 1.10,2013-03-12 17:14:00,
2013-03-12 13:29:00,-999.0,-99.9,29.99,SSW,192,4.0,-999.0,23,-99.99,,,0.00,weatherlink.com 1.10,2013-03-12 17:29:00,
2013-03-12 13:44:00,-999.0,-99.9,29.99,SSW,196,2.0,-999.0,23,-99.99,,,0.00,weatherlink.com 1.10,2013-03-12 17:44:00,
2013-03-12 13:59:00,-999.0,-99.9,29.98,South,176,3.0,-999.0,23,-99.99,,,0.00,weatherlink.com 1.10,2013-03-12 17:59:00,
2013-03-12 14:14:00,48.6,12.0,29.97,SSW,192,3.0,-999.0,23,-99.99,,,0.00,weatherlink.com 1.10,2013-03-12 18:14:00,
2013-03-12 14:29:00,48.2,13.0,29.96,SSW,200,0.0,-999.0,24,-99.99,,,0.00,weatherlink.com 1.10,2013-03-12 18:29:00,
2013-03-12 14:44:00,48.1,13.0,29.95,SSW,210,0.0,-999.0,24,-99.99,,,0.00,weatherlink.com 1.10,2013-03-12 18:44:00,
2013-03-12 14:59:00,48.0,13.0,29.95,SSW,200,1.0,-999.0,24,-99.99,,,0.00,weatherlink.com 1.10,2013-03-12 18:59:00,
2013-03-12 15:16:00,48.1,13.0,29.94,South,183,1.0,-999.0,24,-99.99,,,0.00,weatherlink.com 1.10,2013-03-12 19:16:00,
2013-03-12 15:29:00,47.8,12.0,29.93,South,189,1.0,-999.0,24,-99.99,,,0.00,weatherlink.com 1.10,2013-03-12 19:29:00,
2013-03-12 15:44:00,47.6,12.0,29.92,SSW,200,2.0,-999.0,24,-99.99,,,0.00,weatherlink.com 1.10,2013-03-12 19:44:00,
2013-03-12 16:00:00,47.2,12.0,29.92,SW,222,4.0,-999.0,24,-99.99,,,0.00,weatherlink.com 1.10,2013-03-12 20:00:00,
2013-03-12 16:14:00,47.1,12.0,29.91,SSW,205,3.0,-999.0,24,-99.99,,,0.00,weatherlink.com 1.10,2013-03-12 20:14:00,
2013-03-12 16:29:00,47.4,12.0,29.91,SSW,200,3.0,-999.0,24,-99.99,,,0.00,weatherlink.com 1.10,2013-03-12 20:29:00,
2013-03-12 16:44:00,47.8,12.0,29.90,SSW,195,1.0,-999.0,24,-99.99,,,0.00,weatherlink.com 1.10,2013-03-12 20:44:00,
2013-03-12 16:59:00,47.9,13.0,29.90,SSE,147,3.0,-999.0,24,-99.99,,,0.00,weatherlink.com 1.10,2013-03-12 20:59:00,
2013-03-12 17:14:00,47.8,11.0,29.89,SSW,192,1.0,-999.0,23,-99.99,,,0.00,weatherlink.com 1.10,2013-03-12 21:14:00,
2013-03-12 17:29:00,47.9,12.0,29.88,SW,224,0.0,-999.0,23,-99.99,,,0.01,weatherlink.com 1.10,2013-03-12 21:29:00,
2013-03-12 17:44:00,47.8,11.0,29.87,SSE,152,1.0,-999.0,23,-99.99,,,0.01,weatherlink.com 1.10,2013-03-12 21:44:00,
2013-03-12 17:59:00,-999.0,-99.9,29.86,SE,143,2.0,-999.0,23,-99.99,,,0.01,weatherlink.com 1.10,2013-03-12 21:59:00,
2013-03-12 18:14:00,-999.0,-99.9,29.85,SE,135,0.0,-999.0,23,-99.99,,,0.01,weatherlink.com 1.10,2013-03-12 22:14:00,
2013-03-12 18:29:00,-999.0,-99.9,29.84,SE,137,0.0,-999.0,-999,-99.99,,,0.02,weatherlink.com 1.10,2013-03-12 22:29:00,
2013-03-12 18:44:00,-999.0,-99.9,29.83,SSE,164,0.0,-999.0,-999,-99.99,,,0.03,weatherlink.com 1.10,2013-03-12 22:44:00,
2013-03-12 18:59:00,-999.0,-99.9,29.83,SW,215,2.0,-999.0,-999,-99.99,,,0.03,weatherlink.com 1.10,2013-03-12 22:59:00,
2013-03-12 19:14:00,-999.0,-99.9,29.83,SSE,166,0.0,-999.0,-999,-99.99,,,0.05,weatherlink.com 1.10,2013-03-12 23:14:00,
2013-03-12 19:29:00,-999.0,-99.9,29.82,South,187,0.0,-999.0,-999,-99.99,,,0.05,weatherlink.com 1.10,2013-03-12 23:29:00,
2013-03-12 19:44:00,-999.0,-99.9,29.81,South,182,2.0,-999.0,-999,-99.99,,,0.07,weatherlink.com 1.10,2013-03-12 23:44:00,
2013-03-12 19:59:00,-999.0,-99.9,29.80,SE,128,3.0,-999.0,-999,-99.99,,,0.09,weatherlink.com 1.10,2013-03-12 23:59:00,
2013-03-12 20:14:00,-999.0,-99.9,29.79,SW,216,2.0,-999.0,-999,-99.99,,,0.11,weatherlink.com 1.10,2013-03-13 00:14:00,
2013-03-12 20:29:00,-999.0,-99.9,29.80,South,191,2.0,-999.0,-999,-99.99,,,0.15,weatherlink.com 1.10,2013-03-13 00:29:00,
2013-03-12 20:44:00,-999.0,-99.9,29.79,South,191,3.0,-999.0,-999,-99.99,,,0.21,weatherlink.com 1.10,2013-03-13 00:44:00,
2013-03-12 20:59:00,-999.0,-99.9,29.78,South,185,3.0,-999.0,-999,-99.99,,,0.24,weatherlink.com 1.10,2013-03-13 00:59:00,
2013-03-12 21:14:00,-999.0,-99.9,29.77,South,187,2.0,-999.0,-999,-99.99,,,0.26,weatherlink.com 1.10,2013-03-13 01:14:00,
2013-03-12 21:29:00,-999.0,-99.9,29.77,South,189,6.0,-999.0,-999,-99.99,,,0.30,weatherlink.com 1.10,2013-03-13 01:29:00,
2013-03-12 21:44:00,-999.0,-99.9,29.77,South,178,14.0,-999.0,-999,-99.99,,,0.31,weatherlink.com 1.10,2013-03-13 01:44:00,
2013-03-12 21:59:00,-999.0,-99.9,29.76,South,181,14.0,-999.0,-999,-99.99,,,0.33,weatherlink.com 1.10,2013-03-13 01:59:00,
2013-03-12 22:14:00,-999.0,-99.9,29.76,SSW,210,12.0,-999.0,-999,-99.99,,,0.34,weatherlink.com 1.10,2013-03-13 02:14:00,
2013-03-12 22:29:00,-999.0,-99.9,29.78,SSW,205,17.0,-999.0,-999,-99.99,,,0.36,weatherlink.com 1.10,2013-03-13 02:29:00,
2013-03-12 22:44:00,-999.0,-99.9,29.77,SSW,205,15.0,-999.0,-999,-99.99,,,0.48,weatherlink.com 1.10,2013-03-13 02:44:00,
2013-03-12 22:59:00,-999.0,-99.9,29.77,SSW,205,23.0,-999.0,-999,-99.99,,,0.59,weatherlink.com 1.10,2013-03-13 02:59:00,
2013-03-12 23:14:00,-999.0,-99.9,29.77,SSW,193,20.0,-999.0,-999,-99.99,,,0.70,weatherlink.com 1.10,2013-03-13 03:14:00,
2013-03-12 23:29:00,-999.0,-99.9,29.76,SSW,210,12.0,-999.0,-999,-99.99,,,0.79,weatherlink.com 1.10,2013-03-13 03:29:00,
2013-03-12 23:45:00,-999.0,-99.9,29.75,South,187,12.0,-999.0,-999,-99.99,,,0.81,weatherlink.com 1.10,2013-03-13 03:45:00,
2013-03-12 23:59:00,-999.0,-99.9,29.75,SSW,200,12.0,-999.0,-999,-99.99,,,0.83,weatherlink.com 1.10,2013-03-13 03:59:00,